Theta_e
357 352 345 344 349 351 351 348 344 338 336 337 331 328 327 331 330 332 333 334 336 336 338 339 341 345 344 338 336 334 332 327 324 323 323 323 323 323 324 335 346 348 342
358 352 344 343 347 350 350 347 343 337 338 338 331 328 329 331 333 348 339 337 338 339 341 343 345 346 344 340 338 334 327 324 324 324 323 323 326 325 325 325 345 347 342
357 352 344 342 343 347 348 347 343 338 341 337 331 328 330 332 340 351 341 339 341 342 344 344 345 344 343 340 335 329 326 324 325 328 335 346 340 333 327 330 328 329 334
357 351 346 342 341 341 343 346 344 341 342 335 331 329 331 334 342 350 347 343 342 343 342 342 341 342 343 338 329 324 324 324 325 333 345 349 350 342 336 335 333 331 331
359 353 349 343 341 340 340 343 344 343 343 334 331 330 331 335 340 350 350 348 347 345 343 342 340 335 328 325 324 324 324 325 324 332 346 350 349 345 345 344 344 345 347
360 357 352 344 341 339 341 343 344 345 342 334 332 331 332 333 339 350 351 349 346 345 342 334 327 325 326 326 326 326 327 327 338 344 350 351 348 347 348 343 342 343 342
361 359 353 344 340 338 340 343 344 345 341 334 333 331 332 333 338 349 350 346 344 340 337 332 334 333 330 329 329 329 329 326 329 343 349 350 347 349 347 343 339 338 341
361 360 355 343 340 338 340 343 343 344 341 336 335 333 332 332 336 340 343 341 341 340 338 336 334 332 330 328 329 329 329 334 344 347 347 347 348 347 346 344 342 337 334
359 360 356 346 341 340 341 343 344 343 341 339 338 335 333 333 335 338 340 340 340 338 337 336 335 333 332 330 326 327 329 333 340 341 344 344 347 345 342 339 336 335 332
359 361 354 352 348 343 342 343 343 344 342 343 339 335 334 333 334 336 339 338 339 338 337 335 334 334 333 329 326 325 324 327 330 335 339 341 342 339 335 334 335 330 327
359 359 353 351 347 346 349 345 341 343 343 342 338 335 333 338 334 338 337 344 334 334 335 335 333 329 325 323 323 327 324 324 332 334 336 340 336 334 336 340 340 339 339
358 358 354 350 346 344 346 342 340 340 341 340 340 332 330 339 336 344 342 339 342 334 334 332 328 326 325 330 336 337 336 337 333 335 336 336 335 339 342 343 342 342 341
357 357 354 350 346 343 345 342 344 341 342 341 341 328 336 341 339 343 342 342 338 331 330 335 335 334 339 340 341 342 341 341 339 341 342 341 342 344 344 344 343 343 342
356 357 355 353 348 346 345 341 344 341 342 342 343 333 337 341 340 342 347 344 339 341 336 339 342 341 342 340 341 342 343 343 344 342 341 344 343 344 343 343 344 342 337
356 357 356 354 351 352 347 344 346 344 343 346 344 338 342 342 344 342 341 342 341 340 339 339 340 341 341 344 346 346 344 346 346 345 343 341 344 342 342 342 338 336 335
356 357 357 355 351 353 350 346 348 346 346 347 347 343 346 343 344 342 341 341 341 339 340 343 343 342 344 348 350 350 350 347 346 345 344 343 340 341 338 336 336 336 336
358 358 360 357 353 351 352 347 351 350 348 349 349 347 346 343 342 343 341 341 340 338 339 347 345 344 345 350 349 347 346 342 341 343 340 343 342 337 337 337 337 336 335
344 365 361 359 355 354 358 352 351 350 349 348 349 347 345 342 343 340 340 339 338 338 345 346 350 351 350 347 345 344 341 338 341 337 341 339 337 338 337 337 336 335 336
333 365 362 359 357 354 357 353 352 350 350 348 349 349 346 342 344 339 340 338 338 345 349 350 351 348 345 342 339 336 337 334 332 341 338 338 338 336 336 337 335 334 333
338 364 363 361 358 354 355 355 353 350 351 348 348 349 346 345 343 343 341 352 350 350 348 348 346 341 338 338 333 336 332 335 340 341 337 337 336 336 333 329 330 325 322
327 363 361 360 358 355 355 356 356 351 351 347 348 349 347 346 345 340 344 351 349 348 346 345 343 341 337 333 332 334 332 336 339 336 334 334 334 328 328 321 319 317 319
328 362 359 357 356 357 357 356 355 350 350 349 350 350 348 348 347 347 342 347 346 344 342 340 340 337 336 335 334 337 339 337 335 333 333 333 327 322 319 316 318 320 321
328 357 361 358 356 356 356 355 353 350 349 352 351 351 350 349 348 347 348 347 343 342 340 337 337 336 337 338 339 339 341 340 336 335 331 324 320 316 320 322 320 321 323
330 359 361 360 358 357 355 354 353 353 351 353 351 350 349 351 351 349 345 342 339 335 335 335 337 337 338 337 336 335 334 332 335 331 324 318 318 321 322 318 320 318 317
354 361 359 358 355 355 352 352 351 351 351 350 354 353 352 349 346 341 339 337 335 336 337 335 334 335 333 332 329 326 325 321 321 323 321 320 322 321 319 317 317 317 320
361 361 360 359 356 356 352 351 352 351 354 354 354 349 345 340 338 336 335 336 336 335 333 333 331 328 326 324 323 321 321 320 321 322 322 322 320 320 318 318 319 318 317
Wind_Speed
21 29 28 22 22 23 22 21 19 19 17 15 15 16 17 19 20 19 19 19 17 16 15 14 11 8 5 4 5 5 4 3 3 3 3 4 5 5 6 6 6 2 2
31 29 27 24 23 22 21 20 19 19 17 15 16 17 18 19 20 19 18 17 17 15 14 11 9 7 5 4 3 3 3 3 4 4 3 5 5 5 4 2 3 2 4
32 33 29 24 23 21 21 20 19 19 17 16 16 17 18 20 20 17 17 16 15 13 12 10 8 6 3 2 2 2 2 2 3 3 3 3 2 5 5 2 2 4 5
34 35 29 27 23 21 20 19 19 19 17 16 16 16 17 19 19 16 16 15 12 11 10 8 6 4 2 1 1 1 1 1 2 3 2 5 13 1 5 7 7 7 8
31 34 29 28 24 21 20 20 20 20 19 17 16 15 17 18 17 15 14 13 11 10 8 7 5 2 1 0 0 1 1 1 2 5 6 9 6 2 6 10 10 10 10
26 26 28 28 25 21 20 21 21 20 19 17 16 15 16 17 17 14 13 10 9 8 6 5 4 2 1 0 1 2 3 3 5 8 14 15 4 5 5 11 11 9 11
23 24 26 28 25 22 20 21 21 20 18 17 16 15 15 16 17 14 12 8 7 6 5 4 3 1 0 1 3 3 4 5 8 11 14 16 8 4 3 8 11 12 12
26 25 25 27 24 23 21 22 21 20 18 17 16 15 14 15 16 15 12 8 6 5 4 3 2 1 2 3 3 5 6 7 8 12 18 19 4 7 4 9 13 16 16
25 25 22 26 25 23 22 21 20 19 18 17 15 14 14 14 15 14 12 8 6 5 4 3 3 3 4 4 5 6 8 9 11 12 14 15 4 2 5 11 17 19 19
26 25 24 22 22 23 22 20 19 18 17 16 15 14 13 14 14 13 11 9 7 6 5 5 5 5 6 6 7 8 9 10 12 11 12 15 9 4 10 15 17 19 19
24 25 26 25 23 20 19 20 19 17 17 16 15 14 14 12 14 11 9 9 7 6 6 5 5 6 7 8 6 6 8 11 7 15 20 10 9 8 12 15 17 19 21
25 25 26 26 26 24 20 20 20 18 17 15 14 16 15 15 11 10 11 9 8 7 7 6 6 6 7 6 10 11 10 7 11 14 15 16 9 11 12 15 16 18 20
30 30 32 28 26 25 25 22 19 18 17 16 16 16 15 16 10 14 12 10 9 8 7 6 5 5 3 8 6 9 11 12 15 14 14 7 5 11 14 16 20 19 22
27 33 37 35 29 26 28 25 21 21 19 19 18 15 14 14 15 14 13 11 5 11 2 13 11 5 3 8 8 9 9 9 12 15 18 13 12 15 19 18 17 19 20
30 32 40 38 33 26 29 27 24 22 21 18 18 16 12 13 14 11 6 6 7 10 9 8 9 8 6 10 11 11 6 5 13 16 17 20 19 23 14 15 19 17 17
32 34 46 41 37 29 28 28 26 25 20 21 20 16 13 15 13 11 6 10 6 8 6 8 8 9 11 12 5 5 6 7 14 18 16 18 19 15 18 23 17 16 17
27 33 48 46 39 32 27 28 23 23 21 19 20 19 16 14 13 11 11 10 9 9 9 7 7 7 8 6 4 6 7 6 14 16 16 17 14 20 16 17 20 12 23
8 29 31 37 40 35 23 25 21 22 20 18 20 19 17 16 10 16 13 12 10 9 10 11 6 4 3 4 8 7 7 11 17 19 9 12 16 17 15 19 19 26 29
14 32 38 39 37 36 23 25 20 24 22 21 22 21 19 16 13 13 10 12 10 7 5 3 1 4 7 9 12 11 13 13 23 13 14 15 13 19 21 19 21 23 22
13 32 35 36 39 38 30 24 21 25 18 19 19 24 22 17 15 16 9 7 8 5 3 2 6 6 8 9 12 10 12 17 19 12 13 16 19 19 24 27 22 22 24
15 30 31 31 39 37 33 27 22 23 17 20 18 23 21 17 14 16 7 6 4 4 4 2 2 3 4 14 15 17 14 16 6 13 14 15 16 24 20 24 27 29 24
22 28 34 30 40 35 31 27 22 27 21 21 22 19 18 15 13 11 6 9 7 2 1 2 3 3 5 6 4 8 3 10 11 21 17 17 20 19 28 27 26 25 25
29 29 35 37 37 34 34 29 25 25 22 21 21 18 16 16 10 7 7 9 6 3 5 2 5 3 6 6 8 5 3 3 11 4 13 21 22 29 22 20 27 27 27
30 34 33 33 34 37 36 23 21 19 20 19 21 17 14 13 16 12 13 8 12 10 10 8 8 9 10 11 9 13 7 5 3 5 13 22 26 19 20 30 24 28 25
34 35 38 39 43 39 32 22 20 20 19 24 20 22 17 16 15 13 15 14 12 11 10 11 10 9 12 13 14 13 7 9 9 3 7 14 19 22 28 25 23 22 23
38 36 35 34 34 31 36 31 19 16 20 22 21 21 20 20 20 15 17 15 14 14 10 8 9 9 10 11 12 13 15 13 12 9 5 10 13 19 26 27 25 21 24
Wind_Direction
135 150 153 154 153 155 157 159 159 158 157 152 145 143 138 132 130 129 129 130 128 128 128 129 129 124 113 96 89 87 98 99 96 90 91 102 101 95 96 113 74 349 278
143 151 156 156 157 161 161 163 164 164 162 157 153 148 141 137 136 128 131 130 131 131 131 132 132 133 113 95 84 79 75 77 80 87 108 115 96 72 73 108 132 277 288
141 157 159 160 161 167 167 168 170 169 167 164 159 152 144 143 142 132 133 132 134 135 133 134 138 139 123 86 66 69 67 81 93 100 143 162 204 61 30 10 267 293 299
148 159 163 164 166 170 173 173 174 174 173 169 164 154 147 147 147 140 138 136 135 136 139 141 144 147 142 108 95 118 145 124 135 171 215 271 225 196 33 12 347 321 313
145 155 169 166 169 169 173 176 177 178 177 171 167 160 152 153 153 145 142 138 133 134 136 137 142 160 185 207 255 260 267 280 237 249 284 298 43 155 4 351 337 319 309
144 153 169 168 167 171 172 172 176 179 177 173 169 165 161 159 158 151 148 143 134 136 140 149 149 154 172 303 281 283 286 283 272 304 298 287 306 268 319 341 330 307 290
148 162 171 169 168 172 172 172 175 180 179 177 174 169 167 165 164 158 159 157 151 148 154 157 155 164 277 301 296 291 286 274 286 300 297 298 241 240 291 324 326 321 307
149 158 170 172 172 172 173 175 176 180 180 180 177 175 170 171 171 171 172 170 168 162 164 174 189 231 274 286 287 284 278 276 286 298 309 322 269 192 280 320 318 314 308
147 142 160 169 174 173 174 177 178 181 181 183 180 178 175 174 174 173 176 170 183 177 192 218 248 265 283 297 291 283 282 282 284 295 304 308 242 266 327 330 324 311 304
152 145 155 161 166 167 171 179 179 185 184 184 180 177 177 175 178 177 181 182 198 213 234 248 264 285 291 290 290 293 289 284 282 291 289 280 263 314 324 321 327 317 305
151 140 156 161 164 159 162 173 177 185 184 181 180 177 171 166 174 186 180 222 229 235 239 254 273 284 289 282 269 276 278 280 265 268 272 234 260 296 313 318 321 315 308
155 152 160 163 163 163 163 169 172 176 179 173 175 172 160 173 175 184 198 215 235 243 249 262 273 279 276 290 270 260 267 274 256 269 276 267 273 293 309 317 320 323 316
161 159 159 163 165 167 166 162 160 168 173 172 176 171 161 178 177 177 200 223 234 235 248 246 265 258 273 293 331 274 286 281 273 304 330 308 281 322 322 324 326 327 325
167 163 158 159 166 171 169 161 166 167 174 176 178 175 177 186 180 196 200 190 205 223 208 238 255 253 240 270 270 271 266 294 339 329 320 320 310 325 331 333 327 328 325
167 165 155 158 165 171 165 161 169 173 176 178 180 179 192 184 181 202 229 193 170 214 219 212 242 199 270 257 248 254 291 332 313 312 315 308 325 327 339 340 335 325 325
165 163 152 156 164 168 158 166 177 173 175 179 179 178 188 189 185 197 223 219 227 245 211 216 238 234 257 268 66 56 338 4 333 332 323 313 312 348 347 338 338 325 323
154 155 156 150 163 168 162 166 175 169 170 181 174 175 181 191 181 191 201 214 222 218 242 266 265 266 246 317 9 11 1 1 325 321 316 315 333 332 337 323 330 333 331
198 143 139 150 162 166 160 167 173 167 173 182 167 171 181 187 192 190 202 209 230 212 221 224 213 214 349 2 28 16 348 342 321 309 345 347 334 337 343 338 341 331 329
236 142 146 155 159 166 165 172 179 170 181 182 167 168 177 183 184 193 206 213 210 224 242 243 146 52 31 21 4 338 316 309 305 329 1 350 359 352 346 346 345 339 339
218 150 149 154 159 166 169 174 187 171 183 170 161 165 174 181 190 191 204 151 178 221 299 55 80 75 43 16 347 330 301 301 317 16 18 0 2 349 341 345 349 345 341
208 161 167 161 160 169 170 183 175 171 182 160 169 164 171 182 186 191 197 178 140 83 70 54 70 32 349 359 341 313 316 303 50 5 0 0 349 343 356 340 345 338 335
198 159 165 184 166 169 177 185 176 170 170 161 149 153 164 177 184 195 185 159 126 107 346 40 45 1 336 359 251 270 282 301 357 343 354 356 346 343 336 339 337 341 336
196 167 162 170 175 170 180 186 176 168 166 142 150 156 165 167 170 191 142 117 100 73 110 347 42 30 349 8 11 28 356 2 334 343 5 348 346 338 346 345 345 343 333
187 164 161 162 168 170 183 183 168 166 156 150 151 157 160 164 141 133 123 125 113 80 80 69 40 7 8 3 4 20 15 341 340 326 338 346 339 343 2 349 345 339 336
161 155 162 169 170 177 175 171 171 158 158 152 139 131 140 118 125 116 114 115 104 94 83 77 53 31 37 19 7 3 351 351 346 303 312 334 340 350 347 337 334 339 342
150 157 163 167 162 169 167 155 165 168 144 137 138 130 128 119 119 121 121 116 112 107 93 82 75 45 48 26 23 5 358 343 341 352 328 336 346 340 325 322 326 355 354